sat.trackr.live / text

‹ back to catalog

CONNECTA IOT-6

NORAD 62709 · 2025-009DE

PAYLOAD ACTIVE UNKNOWN

§ Identity

Operator
Country
TURK
Launch date
2025-01-14
Launch site
AFWTR
Launch vehicle
Mass (kg)
RCS (m²)

External: N2YO · Heavens-Above · Gunter

§ Orbital elements

Epoch: 2026-09-22T16:35:47.673600Z

Period
96.36 min
Inclination
97.6982°
Eccentricity
0.0002257
Mean motion
14.94441759 rev/d
Perigee alt
582.5 km
Apogee alt
585.7 km
Semi-major
6,962.2 km
B*
9.3036e-5
RAAN
342.1784°
Arg perigee
151.0247°
Mean anomaly
209.1100°
Rev number
9,192

§ Raw data

CONNECTA IOT-61 62709U 25009DE  26265.69152400  .00000947  00000+0  93036-4 0  99922 62709  97.6982 342.1784 0002257 151.0247 209.1100 14.94441759 91924

JSON: /api/v1/satellites/62709 · /tle

For live sub-satellite position, see the globe view (requires WebGL).

§ Visibility from observer

Set your observer location to see the next 7 days of passes ≥ 10°. The values pass through the URL so the page stays shareable.

No JS? Fill the form by hand. The geolocation button needs JavaScript.

§ Radio — SatNOGS DB

ModeDescriptionDownlinkUplink
GMSK Mode S - GMSK 4k8 AX.25 TLM 2.240 GHz
GMSK Mode U - GMSK 4k8 AX.25 TLM 401.520 MHz

2 transmitters · refreshed weekly from db.satnogs.org